Weather History for Vicksburg, MS

Change the Weather History Date:

Monday, August 26, 2013

  Actual Average Record
Temperature  
Mean Temperature 81 °F 80 °F  
Max Temperature 92 °F 91 °F 101 °F (2011)
Min Temperature 69 °F 69 °F 55 °F (1966)
Degree Days  
Heating Degree Days 0 0  
Month to date heating degree days 0 0  
Since 1 June heating degree days 0 0  
Since 1 July heating degree days 0 0  
Cooling Degree Days 16 15  
Month to date cooling degree days 423 421  
Year to date cooling degree days 1643 1719  
Since 1 June cooling degree days 1313 1349  
Growing Degree Days 30 (Base 50)    
Moisture  
Dew Point 68 °F    
Average Humidity 66    
Maximum Humidity 90    
Minimum Humidity 41    
Precipitation  
Precipitation 0.00 in 0.14 in 1.37 in (1975)
Month to date precipitation 1.05 2.98  
Year to date precipitation 48.15 35.90  
Sea Level Pressure  
Sea Level Pressure 30.18 in    
Wind  
Wind Speed 5 mph (East)    
Max Wind Speed 13 mph    
Max Gust Speed 16 mph    
Visibility 10 miles    
Events      
T = Trace of Precipitation, MM = Missing Value Source: NWS Daily Summary

Daily Weather History Graph

Daily Weather History Graph

Search for Another Location

Airport:

Trip Planner

Search our weather history database for the weather conditions in past years. The results will help you decide how hot, cold, wet, or windy it might be!

Date:

Astronomy

Aug. 26, 2013 Rise Set
Actual Time 6:35 AM CDT 7:35 PM CDT
Civil Twilight 6:10 AM CDT 8:00 PM CDT
Nautical Twilight 5:40 AM CDT 8:30 PM CDT
Astronomical Twilight 5:09 AM CDT 9:01 PM CDT
Moon 11:10 PM CDT (8/26) 12:13 PM CDT (8/26)
Length of Visible Light 13h 50m
Length of Day
13h 00m
Waning Gibbous, 66% of the Moon is Illuminated
Aug 26
Waning Gibbous
Aug 28
Last Quarter
Sep 5
New
Sep 12
First Quarter
Sep 19
Full

Hourly Weather History & Observations

Time (CDT) Temp. Heat Index Dew Point Humidity Pressure Visibility Wind Dir Wind Speed Gust Speed Precip Events Conditions
12:53 AM 75.9 °F - 72.0 °F 87% 30.20 in 10.0 mi ESE 5.8 mph - N/A   Partly Cloudy
1:53 AM 77.0 °F - 72.0 °F 84% 30.19 in 10.0 mi East 4.6 mph - N/A   Overcast
2:53 AM 77.0 °F - 72.0 °F 84% 30.19 in 10.0 mi ESE 4.6 mph - N/A   Overcast
3:53 AM 77.0 °F - 71.1 °F 82% 30.19 in 10.0 mi ESE 5.8 mph - N/A   Overcast
4:53 AM 77.0 °F - 72.0 °F 84% 30.20 in 10.0 mi East 3.5 mph - N/A   Overcast
5:53 AM 73.9 °F - 70.0 °F 87% 30.20 in 10.0 mi SE 4.6 mph - N/A   Clear
6:53 AM 73.0 °F - 70.0 °F 90% 30.21 in 10.0 mi ESE 3.5 mph - N/A   Clear
7:53 AM 77.0 °F - 72.0 °F 84% 30.22 in 10.0 mi East 8.1 mph - N/A   Clear
8:53 AM 80.1 °F 82.3 °F 66.9 °F 64% 30.23 in 10.0 mi SE 8.1 mph - N/A   Clear
9:53 AM 84.0 °F 87.0 °F 68.0 °F 58% 30.24 in 10.0 mi SE 6.9 mph - N/A   Clear
10:53 AM 86.0 °F 89.4 °F 68.0 °F 55% 30.25 in 10.0 mi East 5.8 mph - N/A   Clear
11:53 AM 87.1 °F 90.6 °F 68.0 °F 53% 30.24 in 10.0 mi SE 8.1 mph - N/A   Clear
12:53 PM 89.1 °F 92.1 °F 66.9 °F 48% 30.22 in 10.0 mi ENE 8.1 mph - N/A   Clear
1:53 PM 91.0 °F 94.3 °F 66.9 °F 45% 30.20 in 10.0 mi ENE 5.8 mph - N/A   Clear
2:53 PM 90.0 °F 91.7 °F 64.9 °F 43% 30.17 in 10.0 mi East 5.8 mph - N/A   Clear
3:53 PM 90.0 °F 91.3 °F 64.0 °F 42% 30.15 in 10.0 mi ENE 4.6 mph - N/A   Partly Cloudy
4:53 PM 90.0 °F 90.6 °F 63.0 °F 40% 30.14 in 10.0 mi East 6.9 mph - N/A   Clear
5:53 PM 89.1 °F 89.3 °F 62.1 °F 40% 30.13 in 10.0 mi ENE 6.9 mph - N/A   Clear
6:53 PM 87.1 °F 87.8 °F 63.0 °F 44% 30.13 in 10.0 mi ENE 4.6 mph - N/A   Clear
7:53 PM 80.1 °F 82.1 °F 66.0 °F 62% 30.13 in 10.0 mi ENE 5.8 mph - N/A   Clear
8:53 PM 70.0 °F - 66.0 °F 87% 30.14 in 10.0 mi Calm Calm - N/A   Clear
9:53 PM 70.0 °F - 66.9 °F 90% 30.15 in 10.0 mi SSE 4.6 mph - N/A   Clear
10:53 PM 75.9 °F - 64.9 °F 69% 30.15 in 10.0 mi ESE 5.8 mph - N/A   Clear
11:53 PM 73.0 °F - 64.9 °F 76% 30.16 in 10.0 mi ESE 4.6 mph - N/A   Clear